Showing default

COSMOS 2488, 39483

Orbit data source: Space-Track

COSMOS 2488, 39483 is a payload satellite owned by VVKO (CIS) in LEO that was launched on Wed, 25 Dec 2013 UTC via an ROKOT launch vehicle from the Plesetsk Missile And Space Complex (PKMTR). Payload-class satellites include a variety of spacecraft equipped with specific instruments for various scientific and technological missions. These include communications satellites like Starlink; space stations such as the ISS; scientific satellites like the Hubble; Earth observation satellites from companies like Planet Labs, Umbra, and HawkEye 360; GPS; miniature CubeSats for education and research; and military/defense satellites.

Loading next visibility...
Identifier
39483, 2013-076A
Orbit
LEO
Last TLE update
14 hours ago
Origin
Manufacturer
Resehetnev ISS
Mission
Operational Civil Communications
Bus & Motor
STRELA-3M, Unknown motor
Mass
280 kg wet, 280 kg dry
Launch date (UTC)
2013-12-25 (12 years ago)
Launch vehicle
ROKOT
Launch site
Plesetsk Missile And Space Complex (PKMTR)
Object type
Payload
Rocket body
Debris
Shape & HBR
Cyl + 1 Ant, 7 m
Radar Cross Section
1.583 m², Large (>1 m²)

Expand to show TLE details & history

TLE from 14 hours ago
0 COSMOS 2488
1 39483U 13076A   25186.17477710  .00000015  00000-0  35432-4 0  9997
2 39483  82.4841  24.9460 0019772 130.0855 230.1962 12.42864060522981
Epoch: 2025-07-05T04:11Z
TLE epoch observation values (Epoch: 2025-07-05T04:11:40.741Z)
Latitude
-0.00001°
Longitude
38.60964°
Altitude
1,507.169 km
Speed
7.107 km/s
True Right ascension
01h 39m 47s
True Declination
0° 00' 00"
Sunlit
Object was in daylight at epoch
Visualization orbit readout
Latitude
36.66332°
Longitude
43.86188°
Altitude
1,499.813 km
Speed
7.117 km/s
Apparent Right ascension
22h 47m 53s
Apparent Declination
6° 18' 44"
Sunlit
Object is in daylight
Visualization observer readout
Local Sidereal Time
05:50:26
Azimuth
284.987° WNW
Elevation
-7.755°
Doppler factor
1
Orbital elements
Apogee altitude
1,507.398 km
Perigee altitude
1,476.277 km
Semi-major axis
7,869.974 km
Eccentricity
0.00198
Inclination
82.4841°
RAAN
24.946°
Arg. of periapsis
130.0855°
True anomaly
Unknown
Mean anomaly
230.1962°
Eccentric anomaly
Unknown
Mean motion
3.10873 °/min
Orbital period
115.8 mins
BSTAR
0.000035432
Loading maneuver chart data...
Loading SW <> Apogee altitude chart data...
Loading historical data...
Loading historical data...
Loading historical data...
Loading historical data...
Loading historical data...
Loading historical data...
Loading historical data...

COSMOS 2488 Visibility forecast

Observer location: undefined°, undefined°

Span
Click to sort rows by Start time (UTC) header in descending order
Start Az.
Max El. time (UTC)
Max El. Az.
Max El.
End time (UTC)
End Az.
15 mins2025-07-06 00:06:59.338Z5.345° NNE2025-07-06 00:14:59.338Z73.698° E33.134°2025-07-06 00:21:59.338Z138.097° SSE
14 mins2025-07-06 02:04:59.338Z335.687° NNW2025-07-06 02:11:59.338Z268.802° W33.956°2025-07-06 02:18:59.338Z207.953° SW
15 mins2025-07-06 13:07:59.338Z156.276° SSE2025-07-06 13:14:59.338Z91.263° ESE36.642°2025-07-06 13:22:59.338Z19.347° NNE
13 mins2025-07-06 15:05:59.338Z230.563° WSW2025-07-06 15:11:59.338Z286.682° WNW30.737°2025-07-06 15:18:59.338Z349.205° N
|